Wilmington, NC

8:41 PM EST on February 22, 2017 (GMT -0500)
Wilmington International

Weather History for KILM - November, 2011

Change the Weather History Date:

Thursday, November 24, 2011

  Actual Average Record
Temperature  
Mean Temperature 51 °F 54 °F  
Max Temperature 63 °F 66 °F 79 °F (1986)
Min Temperature 38 °F 43 °F 23 °F (1970)
Degree Days  
Heating Degree Days 14 11  
Month to date heating degree days 168 200  
Since 1 July heating degree days 275 297  
Cooling Degree Days 0 0  
Month to date cooling degree days 23 23  
Year to date cooling degree days 2331 2037  
Growing Degree Days 1 (Base 50)    
Moisture  
Dew Point 35 °F    
Average Humidity 58    
Maximum Humidity 85    
Minimum Humidity 30    
Precipitation  
Precipitation 0.00 in 0.12 in 1.16 in (1983)
Month to date precipitation 2.10 2.59  
Year to date precipitation 42.50 53.29  
Snow  
Snow 0.00 in 0.00 in - ()
Month to date snowfall 0.0 0.0  
Since 1 July snowfall 0.0 0.0  
Since 1 September snowfall 0.0  
Snow Depth 0.00 in    
Sea Level Pressure  
Sea Level Pressure 30.28 in    
Wind  
Wind Speed 6 mph (NNW)    
Max Wind Speed 17 mph    
Max Gust Speed 22 mph    
Visibility 10 miles    
Events      
T = Trace of Precipitation, MM = Missing Value Source: NWS Daily Summary

Daily Weather History Graph

Daily Weather History Graph

Search for Another Location

Airport or City:

Trip Planner

Search our weather history database for the weather conditions in past years. The results will help you decide how hot, cold, wet, or windy it might be!

Date:

Astronomy

Nov. 24, 2011 Rise Set
Actual Time 6:52 AM EST 5:03 PM EST
Civil Twilight 6:25 AM EST 5:30 PM EST
Nautical Twilight 5:55 AM EST 6:01 PM EST
Astronomical Twilight 5:24 AM EST 6:31 PM EST
Moon 6:07 AM EST (11/24) 4:33 PM EST (11/24)
Length of Visible Light 11h 04m
Length of Day
10h 10m
Waning Crescent, 0% of the Moon is Illuminated
Nov 24
Waning Crescent
Nov 25
New
Dec 2
First Quarter
Dec 10
Full
Dec 17
Last Quarter

Hourly Weather History & Observations

Time (EST) Temp. Windchill Dew Point Humidity Pressure Visibility Wind Dir Wind Speed Gust Speed Precip Events Conditions
12:53 AM 50.0 °F - 37.0 °F 61% 30.11 in 10.0 mi WNW 8.1 mph - N/A   Clear
1:53 AM 48.9 °F - 37.0 °F 64% 30.13 in 10.0 mi NW 9.2 mph - N/A   Clear
2:53 AM 48.0 °F - 36.0 °F 63% 30.14 in 10.0 mi NW 8.1 mph - N/A   Clear
3:53 AM 45.0 °F 41.8 °F 36.0 °F 71% 30.15 in 10.0 mi NNW 5.8 mph - N/A   Clear
4:53 AM 44.6 °F 42.2 °F 35.6 °F 71% 30.17 in 10.0 mi NNW 4.6 mph - N/A   Clear
5:53 AM 44.1 °F 40.8 °F 35.1 °F 71% 30.21 in 10.0 mi NNW 5.8 mph - N/A   Clear
6:53 AM 41.0 °F 36.4 °F 35.1 °F 79% 30.24 in 10.0 mi NNW 6.9 mph - N/A   Clear
7:53 AM 46.4 °F 42.9 °F 37.4 °F 71% 30.27 in 10.0 mi NNW 6.9 mph - N/A   Clear
8:53 AM 51.1 °F - 35.1 °F 54% 30.30 in 10.0 mi North 10.4 mph - N/A   Clear
9:53 AM 54.0 °F - 33.1 °F 45% 30.30 in 10.0 mi North 11.5 mph 21.9 mph N/A   Clear
10:53 AM 55.9 °F - 30.9 °F 39% 30.32 in 10.0 mi North 15.0 mph 18.4 mph N/A   Clear
11:53 AM 59.0 °F - 32.0 °F 36% 30.30 in 10.0 mi NNW 9.2 mph - N/A   Clear
12:53 PM 61.0 °F - 30.9 °F 32% 30.29 in 10.0 mi North 13.8 mph 20.7 mph N/A   Clear
1:53 PM 62.1 °F - 30.9 °F 31% 30.28 in 10.0 mi North 9.2 mph - N/A   Clear
2:53 PM 63.0 °F - 30.0 °F 29% 30.29 in 10.0 mi North 13.8 mph - N/A   Clear
3:53 PM 62.1 °F - 30.9 °F 31% 30.30 in 10.0 mi North 10.4 mph - N/A   Clear
4:53 PM 57.0 °F - 32.0 °F 39% 30.32 in 10.0 mi North 4.6 mph - N/A   Clear
5:53 PM 48.9 °F - 37.0 °F 64% 30.33 in 10.0 mi Calm Calm - N/A   Clear
6:53 PM 46.9 °F - 39.0 °F 74% 30.35 in 10.0 mi Calm Calm - N/A   Clear
7:53 PM 44.1 °F - 37.9 °F 79% 30.35 in 10.0 mi Calm Calm - N/A   Clear
8:53 PM 43.0 °F - 37.0 °F 80% 30.36 in 10.0 mi Calm Calm - N/A   Clear
9:53 PM 39.0 °F - 35.1 °F 86% 30.37 in 10.0 mi Calm Calm - N/A   Clear
10:53 PM 39.0 °F - 36.0 °F 89% 30.37 in 10.0 mi Calm Calm - N/A   Clear
11:53 PM 37.9 °F - 35.1 °F 89% 30.36 in 10.0 mi Calm Calm - N/A   Clear